TimeEDT,TemperatureF,Dew PointF,Humidity,Sea Level PressureIn,VisibilityMPH,Wind Direction,Wind SpeedMPH,Gust SpeedMPH,PrecipitationIn,Events,Conditions,WindDirDegrees,DateUTC
12:15 AM,35.8,27.7,72,30.09,10.0,WNW,8.1,-,N/A,,Overcast,290,2012-10-07 04:15:00
12:36 AM,35.6,28.4,75,30.09,10.0,WNW,8.1,-,N/A,,Overcast,290,2012-10-07 04:36:00
12:56 AM,35.2,27.3,73,30.09,10.0,West,9.2,-,N/A,,Overcast,280,2012-10-07 04:56:00
1:16 AM,35.1,27.1,73,30.09,10.0,West,8.1,-,N/A,,Overcast,280,2012-10-07 05:16:00
1:36 AM,34.7,27.0,73,30.09,10.0,West,8.1,-,N/A,,Overcast,270,2012-10-07 05:36:00
1:55 AM,34.7,26.6,72,30.08,10.0,West,6.9,-,N/A,,Overcast,270,2012-10-07 05:55:00
2:16 AM,34.3,26.6,73,30.08,10.0,West,5.8,-,N/A,,Overcast,270,2012-10-07 06:16:00
2:36 AM,34.7,26.1,71,30.08,10.0,WNW,10.4,-,N/A,,Overcast,290,2012-10-07 06:36:00
2:56 AM,34.0,26.1,73,30.08,10.0,WNW,12.7,-,N/A,,Scattered Clouds,290,2012-10-07 06:56:00
3:16 AM,34.0,26.6,74,30.07,10.0,West,11.5,-,N/A,,Mostly Cloudy,280,2012-10-07 07:16:00
3:36 AM,34.7,26.4,72,30.07,10.0,WNW,9.2,-,N/A,,Overcast,290,2012-10-07 07:36:00
3:56 AM,34.9,26.6,72,30.06,10.0,WNW,10.4,16.1,N/A,,Overcast,290,2012-10-07 07:56:00
4:16 AM,34.3,26.6,73,30.06,10.0,West,8.1,-,N/A,,Mostly Cloudy,280,2012-10-07 08:16:00
4:36 AM,33.8,26.6,75,30.06,10.0,WNW,9.2,-,N/A,,Mostly Cloudy,290,2012-10-07 08:36:00
4:56 AM,33.8,26.6,75,30.06,10.0,WNW,10.4,16.1,N/A,,Scattered Clouds,290,2012-10-07 08:56:00
5:16 AM,33.8,27.3,77,30.06,10.0,West,9.2,-,N/A,,Mostly Cloudy,280,2012-10-07 09:16:00
5:36 AM,33.6,27.5,78,30.06,10.0,WNW,9.2,-,N/A,,Overcast,290,2012-10-07 09:36:00
5:56 AM,34.3,29.1,81,30.06,10.0,West,6.9,-,N/A,,Mostly Cloudy,260,2012-10-07 09:56:00
6:50 AM,33.8,28.4,81,30.06,10.0,West,4.6,-,N/A,,Scattered Clouds,260,2012-10-07 10:50:00
7:50 AM,32.0,26.6,80,30.06,10.0,WSW,5.8,-,N/A,,Mostly Cloudy,240,2012-10-07 11:50:00
8:55 AM,33.8,28.4,81,30.06,10.0,WSW,5.8,-,N/A,,Clear,240,2012-10-07 12:55:00
9:55 AM,35.6,28.4,75,30.06,10.0,WSW,5.8,-,N/A,,Clear,240,2012-10-07 13:55:00
10:50 AM,39.2,26.6,61,30.04,10.0,West,12.7,-,N/A,,Clear,260,2012-10-07 14:50:00
11:50 AM,42.8,21.2,42,30.03,10.0,West,15.0,21.9,N/A,,Clear,270,2012-10-07 15:50:00
12:50 PM,44.6,15.8,31,30.02,10.0,WSW,15.0,20.7,N/A,,Clear,250,2012-10-07 16:50:00
1:50 PM,46.4,15.8,29,30.00,10.0,West,10.4,19.6,N/A,,Clear,270,2012-10-07 17:50:00
2:50 PM,48.2,14.0,25,29.89,10.0,West,8.1,-,N/A,,Clear,270,2012-10-07 18:50:00
3:50 PM,48.2,15.8,27,29.97,10.0,West,8.1,-,N/A,,Scattered Clouds,280,2012-10-07 19:50:00
4:50 PM,46.4,15.8,29,29.96,10.0,SW,12.7,19.6,N/A,,Scattered Clouds,230,2012-10-07 20:50:00
5:50 PM,46.4,14.0,27,29.95,10.0,WSW,10.4,-,N/A,,Scattered Clouds,240,2012-10-07 21:50:00
6:50 PM,46.4,14.0,27,29.94,10.0,SW,6.9,-,N/A,,Clear,230,2012-10-07 22:50:00
7:55 PM,41.0,15.8,36,29.95,10.0,SW,5.8,-,N/A,,Clear,220,2012-10-07 23:55:00
8:50 PM,37.4,15.8,41,29.96,10.0,SSW,4.6,-,N/A,,Clear,200,2012-10-08 00:50:00
9:50 PM,35.6,17.6,48,29.96,10.0,SSW,4.6,-,N/A,,Clear,210,2012-10-08 01:50:00
10:16 PM,34.7,17.6,50,29.96,10.0,SW,4.6,-,N/A,,Clear,220,2012-10-08 02:16:00
10:36 PM,33.8,18.0,52,29.95,10.0,SSW,5.8,-,N/A,,Clear,210,2012-10-08 02:36:00
10:55 PM,33.3,18.1,54,29.95,10.0,SSW,6.9,-,N/A,,Clear,200,2012-10-08 02:55:00
11:16 PM,32.9,18.1,55,29.95,10.0,SSW,6.9,-,N/A,,Clear,200,2012-10-08 03:16:00
11:36 PM,32.7,18.0,55,29.95,10.0,SSW,6.9,-,N/A,,Clear,200,2012-10-08 03:36:00
11:56 PM,32.5,17.6,54,29.94,10.0,SSW,5.8,-,N/A,,Clear,200,2012-10-08 03:56:00